Preview of NWS' New Version of Forecast
This preview is not operational and should not be used for support decisions.

Regional Weather Roundup (RWR)

Issued by National Weather Service (NWS)

                            
000
ASUS43 KTOP 162359
RWRKS 

WEATHER ROUNDUP FOR KANSAS
NATIONAL WEATHER SERVICE GOODLAND KS
600 PM CST SAT FEB 16 2019

NOTE:  "FAIR" INDICATES FEW OR NO CLOUDS BELOW 12,000 FEET WITH NO
SIGNIFICANT WEATHER AND/OR OBSTRUCTIONS TO VISIBILITY.

KSZ001>006-013>018-027>032-041>047-170100-
NORTHWEST KANSAS
  
CITY           SKY/WX    TMP DP  RH WIND       PRES   REMARKS
GOODLAND       CLOUDY    22  21  96 N5        29.56R                  
6HR MIN TEMP:  21; 6HR MAX TEMP:  22;                                

HAYS           LGT SNOW  19  18  95 NE8       29.68R FOG              
HILL CITY      CLOUDY    18  16  92 E7        29.68R FOG              
6HR MIN TEMP:  18; 6HR MAX TEMP:  19; 6HR PCP: TRACE;                

RUSSELL        CLOUDY    19  19 100 E5        29.67R FOG              
6HR MIN TEMP:  16; 6HR MAX TEMP:  19;                                

$$

KSZ061>065-074>080-084>089-170100-
SOUTHWEST KANSAS
  
CITY           SKY/WX    TMP DP  RH WIND       PRES   REMARKS
DODGE CITY     FOG       22  19  89 E7        29.57R VSB 1/4          
6HR MIN TEMP:  22; 6HR MAX TEMP:  23; 6HR PCP: TRACE;                

GARDEN CITY    FOG       21  20  96 NE13      29.59R VSB<1/4 WCI   9  
6HR MIN TEMP:  20; 6HR MAX TEMP:  22;                                

GREAT BEND     MIX PCPN  21  19  92 NE8       29.66R FOG              
LIBERAL        MOCLDY    27  22  81 E17       29.50R WCI  14          
$$

KSZ066>073-081>083-090>101-170100-
SOUTHEAST KANSAS
  
CITY           SKY/WX    TMP DP  RH WIND       PRES   REMARKS
CHANUTE        CLOUDY    28  24  85 E10       29.72F FOG     WCI  19  
6HR MIN TEMP:  26; 6HR MAX TEMP:  29;                                

COFFEYVILLE    CLOUDY    29  27  92 E10       29.70F FOG     WCI  20  
6HR MIN TEMP:  26; 6HR MAX TEMP:  29;                                

HUTCHINSON     CLOUDY    25  25 100 SE9       29.66R FOG              
6HR MIN TEMP:  21; 6HR MAX TEMP:  25;                                

MEDICINE LODGE   N/A     23  22  96 E6        29.65R                  
NEWTON         CLOUDY    24  23  96 SE10      29.67R WCI  14          
PARSONS        CLOUDY    29  27  92 VRB3      29.72F                  
6HR MIN TEMP:  25; 6HR MAX TEMP:  29;                                

WICHITA INTL   CLOUDY    26  25  96 SE9       29.66F FOG              
6HR MIN TEMP:  24; 6HR MAX TEMP:  26;                                

WICHITA JABRA  CLOUDY    25  23  92 SE8       29.67F FOG              
6HR MIN TEMP:  23; 6HR MAX TEMP:  25;                                

WICHITA MCCONL FRZ DRZL  25  25  99 E7        29.66  FOG              
WINFIELD       CLOUDY    26  25  96 SE9       29.67F FOG              
6HR MIN TEMP:  23; 6HR MAX TEMP:  26;                                

$$

KSZ007>012-019>026-033>040-048>060-102>105-170100-
NORTHEAST KANSAS
  
CITY           SKY/WX    TMP DP  RH WIND       PRES   REMARKS
CONCORDIA      MIX PCPN  18  15  88 NE10      29.71R FOG     WCI   6  
6HR MIN TEMP:  14; 6HR MAX TEMP:  20; 6HR PCP:  0.04;                

EMPORIA        CLOUDY    24  18  77 E16G22    29.68F WCI  11          
6HR MIN TEMP:  21; 6HR MAX TEMP:  26; 6HR PCP: TRACE;                

LAWRENCE       CLOUDY    26  13  57 E10       29.77S WCI  16          
6HR MIN TEMP:  24; 6HR MAX TEMP:  29;                                

MANHATTAN      CLOUDY    25  19  78 NE10      29.72S WCI  15          
6HR MIN TEMP:  20; 6HR MAX TEMP:  25; 6HR PCP:  0.01;                

OLATHE IND     CLOUDY    24  15  68 E9        29.75F                  
6HR MIN TEMP:  22; 6HR MAX TEMP:  27;                                

OLATHE EXE     CLOUDY    23  14  68 E14       29.74F WCI  11          
6HR MIN TEMP:  21; 6HR MAX TEMP:  26;                                

SALINA         CLOUDY    22  21  96 E9        29.70S FOG              
6HR MIN TEMP:  19; 6HR MAX TEMP:  23; 6HR PCP: TRACE;                

TOPEKA BILLARD CLOUDY    26  14  60 E13       29.75F WCI  15          
6HR MIN TEMP:  23; 6HR MAX TEMP:  28; 6HR PCP: TRACE;                

TOPEKA FORBES  CLOUDY    27  15  61 E9        29.72F                  
6HR MIN TEMP:  22; 6HR MAX TEMP:  28; 6HR PCP: TRACE;                

$$